| time (UTC) | temp F | wind direction | speed MPH | gust MPH | rain 1hr in | rain 24hr in | rain mn in | humidity % | barometer mb |
| 20260505075903 | 72 | 245 | 1.0 | 3.0 | 0.00 | 0.00 | 0.00 | 49 | 1019.5 |
| 20260505075405 | 71 | 241 | 2.0 | 3.0 | 0.00 | 0.00 | 0.00 | 48 | 1019.6 |
| 20260505074904 | 71 | 307 | 1.0 | 3.0 | 0.00 | 0.00 | 0.00 | 50 | 1019.6 |
| 20260505074404 | 71 | 231 | 2.0 | 5.0 | 0.00 | 0.00 | 0.00 | 49 | 1019.6 |
| 20260505073904 | 71 | 236 | 2.0 | 5.0 | 0.00 | 0.00 | 0.00 | 49 | 1019.6 |
| 20260505073404 | 71 | 226 | 1.0 | 5.0 | 0.00 | 0.00 | 0.00 | 49 | 1019.6 |
| 20260505072905 | 70 | 250 | 1.0 | 3.0 | 0.00 | 0.00 | 0.00 | 49 | 1019.6 |
| 20260505072403 | 70 | 254 | 1.0 | 3.0 | 0.00 | 0.00 | 0.00 | 49 | 1019.7 |
| 20260505071905 | 70 | 243 | 1.0 | 3.0 | 0.00 | 0.00 | 0.00 | 51 | 1019.8 |
| 20260505071405 | 70 | 257 | 1.0 | 5.0 | 0.00 | 0.00 | 0.00 | 50 | 1019.8 |
| 20260505070904 | 70 | 249 | 1.0 | 5.0 | 0.00 | 0.00 | 0.00 | 51 | 1019.7 |
| 20260505065404 | 69 | 255 | 1.0 | 3.0 | 0.00 | 0.00 | 0.00 | 54 | 1019.7 |
| 20260505064904 | 68 | 244 | 1.0 | 3.0 | 0.00 | 0.00 | 0.00 | 53 | 1019.7 |
| 20260505064403 | 68 | 252 | 1.0 | 2.0 | 0.00 | 0.00 | 0.00 | 56 | 1019.7 |
| 20260505063904 | 67 | 356 | 0.0 | 2.0 | 0.00 | 0.00 | 0.00 | 56 | 1019.7 |
| 20260505063404 | 67 | 278 | 1.0 | 3.0 | 0.00 | 0.00 | 0.00 | 56 | 1019.7 |
| 20260505062404 | 66 | 279 | 1.0 | 2.0 | 0.00 | 0.00 | 0.00 | 56 | 1019.8 |
| 20260505061905 | 66 | 279 | 1.0 | 3.0 | 0.00 | 0.00 | 0.00 | 56 | 1019.7 |
| 20260505060904 | 65 | 259 | 1.0 | 3.0 | 0.00 | 0.00 | 0.00 | 56 | 1019.6 |
| 20260505060403 | 65 | 291 | 1.0 | 3.0 | 0.00 | 0.00 | 0.00 | 55 | 1019.7 |
| 20260505055405 | 66 | 286 | 0.0 | 2.0 | 0.00 | 0.00 | 0.00 | 55 | 1019.6 |
| 20260505054904 | 66 | 193 | 1.0 | 2.0 | 0.00 | 0.00 | 0.00 | 55 | 1019.7 |
| 20260505054404 | 66 | 168 | 0.0 | 1.0 | 0.00 | 0.00 | 0.00 | 56 | 1019.5 |
| 20260505053404 | 67 | 186 | 0.0 | 1.0 | 0.00 | 0.00 | 0.00 | 54 | 1019.6 |
| 20260505052905 | 67 | 170 | 0.0 | 0.0 | 0.00 | 0.00 | 0.00 | 52 | 1019.6 |
| 20260505052404 | 66 | 183 | 0.0 | 0.0 | 0.00 | 0.00 | 0.00 | 53 | 1019.6 |
| 20260505051904 | 66 | 186 | 0.0 | 0.0 | 0.00 | 0.00 | 0.00 | 55 | 1019.5 |
| 20260505051406 | 64 | 186 | 0.0 | 1.0 | 0.00 | 0.00 | 0.00 | 61 | 1019.5 |
| 20260505050904 | 63 | 186 | 0.0 | 1.0 | 0.00 | 0.00 | 0.00 | 61 | 1019.5 |
| 20260505050404 | 64 | 186 | 0.0 | 1.0 | 0.00 | 0.00 | 0.00 | 59 | 1019.5 |
| 20260505041405 | 55 | 125 | 0.0 | 1.0 | 0.00 | 0.00 | 0.00 | 66 | 1019.4 |
| 20260505040904 | 57 | 148 | 0.0 | 1.0 | 0.00 | 0.00 | 0.00 | 63 | 1019.5 |
| 20260505040405 | 57 | 43 | 0.0 | 1.0 | 0.00 | 0.00 | 0.00 | 60 | 1019.4 |
| 20260505035905 | 57 | 43 | 0.0 | 0.0 | 0.00 | 0.00 | 0.00 | 59 | 1019.5 |
| 20260505035404 | 57 | 43 | 0.0 | 0.0 | 0.00 | 0.00 | 0.00 | 60 | 1019.4 |
| 20260505034903 | 56 | 43 | 0.0 | 1.0 | 0.00 | 0.00 | 0.00 | 60 | 1019.4 |
| 20260505034403 | 56 | 43 | 0.0 | 1.0 | 0.00 | 0.00 | 0.00 | 62 | 1019.4 |
| 20260505033904 | 55 | 43 | 0.0 | 1.0 | 0.00 | 0.00 | 0.00 | 63 | 1019.3 |
| 20260505033406 | 55 | 43 | 1.0 | 2.0 | 0.00 | 0.00 | 0.00 | 63 | 1019.3 |
| 20260505032904 | 56 | 43 | 0.0 | 2.0 | 0.00 | 0.00 | 0.00 | 62 | 1019.3 |
| 20260505032404 | 55 | 48 | 1.0 | 2.0 | 0.00 | 0.00 | 0.00 | 63 | 1019.3 |
| 20260505031903 | 54 | 50 | 0.0 | 2.0 | 0.00 | 0.00 | 0.00 | 65 | 1019.3 |
| 20260505031403 | 54 | 51 | 1.0 | 1.0 | 0.00 | 0.00 | 0.00 | 66 | 1019.2 |
| 20260505030904 | 53 | 52 | 1.0 | 1.0 | 0.00 | 0.00 | 0.00 | 67 | 1019.3 |
| 20260505030406 | 53 | 52 | 1.0 | 1.0 | 0.00 | 0.00 | 0.00 | 67 | 1019.4 |
| 20260505025905 | 53 | 44 | 1.0 | 2.0 | 0.00 | 0.00 | 0.00 | 67 | 1019.3 |
| 20260505025404 | 52 | 41 | 1.0 | 2.0 | 0.00 | 0.00 | 0.00 | 70 | 1019.3 |
| 20260505024905 | 52 | 32 | 1.0 | 1.0 | 0.00 | 0.00 | 0.00 | 70 | 1019.4 |
| 20260505024404 | 52 | 310 | 0.0 | 1.0 | 0.00 | 0.00 | 0.00 | 69 | 1019.5 |
| 20260505023904 | 53 | 246 | 0.0 | 2.0 | 0.00 | 0.00 | 0.00 | 67 | 1019.6 |
| 20260505023404 | 54 | 246 | 0.0 | 2.0 | 0.00 | 0.00 | 0.00 | 66 | 1019.6 |
| 20260505022905 | 55 | 65 | 1.0 | 1.0 | 0.00 | 0.00 | 0.00 | 63 | 1019.5 |
| 20260505022405 | 54 | 68 | 1.0 | 1.0 | 0.00 | 0.00 | 0.00 | 65 | 1019.5 |
| 20260505021904 | 54 | 68 | 1.0 | 1.0 | 0.00 | 0.00 | 0.00 | 66 | 1019.5 |
| 20260505021404 | 55 | 68 | 0.0 | 2.0 | 0.00 | 0.00 | 0.00 | 64 | 1019.5 |
| 20260505020903 | 56 | 69 | 1.0 | 2.0 | 0.00 | 0.00 | 0.00 | 61 | 1019.6 |
| 20260505020404 | 55 | 47 | 1.0 | 2.0 | 0.00 | 0.00 | 0.00 | 62 | 1019.5 |
| 20260505015904 | 55 | 70 | 1.0 | 1.0 | 0.00 | 0.00 | 0.00 | 63 | 1019.5 |
| 20260505015404 | 55 | 70 | 1.0 | 1.0 | 0.00 | 0.00 | 0.00 | 63 | 1019.5 |
| 20260505014405 | 54 | 68 | 1.0 | 1.0 | 0.00 | 0.00 | 0.00 | 64 | 1019.5 |
| 20260505013904 | 53 | 68 | 0.0 | 1.0 | 0.00 | 0.00 | 0.00 | 66 | 1019.6 |
| 20260505013404 | 52 | 68 | 1.0 | 1.0 | 0.00 | 0.00 | 0.00 | 69 | 1019.6 |
| 20260505012904 | 52 | 68 | 1.0 | 1.0 | 0.00 | 0.00 | 0.00 | 69 | 1019.6 |
| 20260505012404 | 54 | 68 | 0.0 | 1.0 | 0.00 | 0.00 | 0.00 | 66 | 1019.6 |
| 20260505011905 | 54 | 57 | 1.0 | 1.0 | 0.00 | 0.00 | 0.00 | 65 | 1019.6 |
| 20260505011404 | 54 | 58 | 0.0 | 1.0 | 0.00 | 0.00 | 0.00 | 65 | 1019.6 |
| 20260505010904 | 53 | 57 | 1.0 | 1.0 | 0.00 | 0.00 | 0.00 | 65 | 1019.6 |
| 20260505010404 | 53 | 57 | 1.0 | 1.0 | 0.00 | 0.00 | 0.00 | 66 | 1019.6 |
| 20260505005404 | 54 | 56 | 0.0 | 1.0 | 0.00 | 0.00 | 0.00 | 64 | 1019.6 |
| 20260505004904 | 54 | 56 | 1.0 | 1.0 | 0.00 | 0.00 | 0.00 | 64 | 1019.6 |
| 20260505004406 | 54 | 56 | 0.0 | 1.0 | 0.00 | 0.00 | 0.00 | 64 | 1019.6 |
| 20260505003904 | 55 | 56 | 0.0 | 1.0 | 0.00 | 0.00 | 0.00 | 62 | 1019.6 |
| 20260505003405 | 54 | 56 | 0.0 | 1.0 | 0.00 | 0.00 | 0.00 | 64 | 1019.6 |
| 20260505002905 | 54 | 56 | 0.0 | 1.0 | 0.00 | 0.00 | 0.00 | 66 | 1019.6 |
| 20260505002405 | 54 | 56 | 0.0 | 1.0 | 0.00 | 0.00 | 0.00 | 64 | 1019.7 |
| 20260505001905 | 55 | 56 | 0.0 | 2.0 | 0.00 | 0.00 | 0.00 | 63 | 1019.6 |
| 20260505001403 | 55 | 56 | 0.0 | 2.0 | 0.00 | 0.00 | 0.00 | 63 | 1019.6 |
| 20260505000405 | 54 | 86 | 0.0 | 1.0 | 0.00 | 0.00 | 0.00 | 67 | 1019.6 |
| 20260504235405 | 55 | 49 | 1.0 | 1.0 | 0.00 | 0.00 | 0.00 | 63 | 1019.7 |
| 20260504234905 | 55 | 48 | 0.0 | 2.0 | 0.00 | 0.00 | 0.00 | 62 | 1019.6 |
| 20260504234403 | 56 | 48 | 1.0 | 2.0 | 0.00 | 0.00 | 0.00 | 61 | 1019.6 |
| 20260504233905 | 56 | 49 | 1.0 | 3.0 | 0.00 | 0.00 | 0.00 | 62 | 1019.8 |
| 20260504233403 | 57 | 49 | 1.0 | 3.0 | 0.00 | 0.00 | 0.00 | 60 | 1019.8 |
| 20260504232903 | 56 | 56 | 2.0 | 3.0 | 0.00 | 0.00 | 0.00 | 61 | 1019.8 |
| 20260504232405 | 55 | 51 | 1.0 | 1.0 | 0.00 | 0.00 | 0.00 | 63 | 1019.9 |
| 20260504231903 | 55 | 51 | 0.0 | 2.0 | 0.00 | 0.00 | 0.00 | 62 | 1019.9 |
| 20260504231403 | 55 | 50 | 0.0 | 2.0 | 0.00 | 0.00 | 0.00 | 62 | 1019.8 |
| 20260504230903 | 55 | 55 | 1.0 | 2.0 | 0.00 | 0.00 | 0.00 | 63 | 1019.8 |
| 20260504230403 | 57 | 63 | 0.0 | 1.0 | 0.00 | 0.00 | 0.00 | 60 | 1019.8 |
| 20260504225903 | 58 | 55 | 0.0 | 1.0 | 0.00 | 0.00 | 0.00 | 56 | 1019.9 |
| 20260504225404 | 56 | 55 | 0.0 | 1.0 | 0.00 | 0.00 | 0.00 | 60 | 1020.0 |
| 20260504224403 | 56 | 54 | 0.0 | 1.0 | 0.00 | 0.00 | 0.00 | 63 | 1019.9 |
| 20260504223905 | 57 | 54 | 0.0 | 2.0 | 0.00 | 0.00 | 0.00 | 60 | 1019.9 |
| 20260504222904 | 57 | 47 | 1.0 | 3.0 | 0.00 | 0.00 | 0.00 | 58 | 1020.0 |
| 20260504222403 | 57 | 38 | 0.0 | 3.0 | 0.00 | 0.00 | 0.00 | 58 | 1020.0 |
| 20260504221906 | 57 | 38 | 1.0 | 3.0 | 0.00 | 0.00 | 0.00 | 58 | 1020.0 |
| 20260504221403 | 56 | 54 | 2.0 | 3.0 | 0.00 | 0.00 | 0.00 | 61 | 1020.0 |
| 20260504220904 | 56 | 66 | 0.0 | 1.0 | 0.00 | 0.00 | 0.00 | 61 | 1020.0 |
| 20260504220404 | 58 | 67 | 1.0 | 2.0 | 0.00 | 0.00 | 0.00 | 57 | 1020.1 |
| 20260504215904 | 58 | 66 | 1.0 | 2.0 | 0.00 | 0.00 | 0.00 | 56 | 1020.1 |
| 20260504214904 | 55 | 72 | 1.0 | 1.0 | 0.00 | 0.00 | 0.00 | 64 | 1020.2 |
| 20260504214404 | 55 | 86 | 0.0 | 1.0 | 0.00 | 0.00 | 0.00 | 64 | 1020.1 |
| 20260504213905 | 56 | 59 | 0.0 | 1.0 | 0.00 | 0.00 | 0.00 | 63 | 1020.1 |
| 20260504213404 | 55 | 60 | 1.0 | 1.0 | 0.00 | 0.00 | 0.00 | 62 | 1020.0 |
| 20260504212904 | 56 | 60 | 0.0 | 1.0 | 0.00 | 0.00 | 0.00 | 62 | 1020.0 |
| 20260504212406 | 57 | 60 | 1.0 | 1.0 | 0.00 | 0.00 | 0.00 | 59 | 1020.0 |
| 20260504211904 | 57 | 60 | 0.0 | 1.0 | 0.00 | 0.00 | 0.00 | 58 | 1020.0 |
| 20260504210904 | 57 | 60 | 0.0 | 1.0 | 0.00 | 0.00 | 0.00 | 60 | 1019.9 |
| 20260504210403 | 58 | 60 | 0.0 | 1.0 | 0.00 | 0.00 | 0.00 | 58 | 1020.0 |
| 20260504205906 | 58 | 60 | 1.0 | 1.0 | 0.00 | 0.00 | 0.00 | 58 | 1020.0 |
| 20260504205404 | 57 | 60 | 1.0 | 1.0 | 0.00 | 0.00 | 0.00 | 59 | 1019.9 |
| 20260504204904 | 58 | 60 | 1.0 | 1.0 | 0.00 | 0.00 | 0.00 | 59 | 1019.9 |
| 20260504204404 | 58 | 60 | 1.0 | 1.0 | 0.00 | 0.00 | 0.00 | 57 | 1019.9 |
| 20260504203904 | 57 | 60 | 1.0 | 1.0 | 0.00 | 0.00 | 0.00 | 60 | 1019.9 |
| 20260504203405 | 58 | 60 | 1.0 | 1.0 | 0.00 | 0.00 | 0.00 | 59 | 1019.8 |
| 20260504202904 | 57 | 60 | 1.0 | 1.0 | 0.00 | 0.00 | 0.00 | 59 | 1019.9 |
| 20260504202404 | 56 | 60 | 1.0 | 1.0 | 0.00 | 0.00 | 0.00 | 61 | 1019.8 |
| 20260504201904 | 56 | 60 | 1.0 | 1.0 | 0.00 | 0.00 | 0.00 | 64 | 1019.8 |
| 20260504200905 | 56 | 51 | 0.0 | 1.0 | 0.00 | 0.00 | 0.00 | 65 | 1019.8 |
| 20260504200404 | 56 | 51 | 0.0 | 1.0 | 0.00 | 0.00 | 0.00 | 65 | 1019.8 |
| 20260504195904 | 57 | 51 | 0.0 | 1.0 | 0.00 | 0.00 | 0.00 | 63 | 1019.8 |
| 20260504195404 | 57 | 51 | 0.0 | 1.0 | 0.00 | 0.00 | 0.00 | 62 | 1019.7 |
| 20260504194406 | 58 | 51 | 0.0 | 1.0 | 0.00 | 0.00 | 0.00 | 60 | 1019.8 |
| 20260504193903 | 59 | 51 | 0.0 | 3.0 | 0.00 | 0.00 | 0.00 | 57 | 1019.8 |
| 20260504193405 | 60 | 51 | 2.0 | 3.0 | 0.00 | 0.00 | 0.00 | 56 | 1019.7 |
| 20260504192903 | 59 | 53 | 1.0 | 3.0 | 0.00 | 0.00 | 0.00 | 56 | 1019.7 |
| 20260504192404 | 59 | 50 | 2.0 | 3.0 | 0.00 | 0.00 | 0.00 | 58 | 1019.7 |
| 20260504191905 | 59 | 51 | 2.0 | 3.0 | 0.00 | 0.00 | 0.00 | 59 | 1019.7 |
| 20260504191405 | 59 | 47 | 2.0 | 3.0 | 0.00 | 0.00 | 0.00 | 59 | 1019.7 |
| 20260504190404 | 61 | 49 | 1.0 | 2.0 | 0.00 | 0.00 | 0.00 | 54 | 1019.7 |
| 20260504185403 | 60 | 43 | 1.0 | 3.0 | 0.00 | 0.00 | 0.00 | 55 | 1019.6 |
| 20260504184905 | 60 | 51 | 2.0 | 3.0 | 0.00 | 0.00 | 0.00 | 56 | 1019.6 |
| 20260504184403 | 60 | 51 | 2.0 | 3.0 | 0.00 | 0.00 | 0.00 | 58 | 1019.6 |
| 20260504183903 | 60 | 46 | 1.0 | 3.0 | 0.00 | 0.00 | 0.00 | 59 | 1019.5 |
| 20260504183404 | 60 | 43 | 1.0 | 3.0 | 0.00 | 0.00 | 0.00 | 60 | 1019.5 |
| 20260504182403 | 60 | 59 | 1.0 | 3.0 | 0.00 | 0.00 | 0.00 | 60 | 1019.4 |
| 20260504181904 | 60 | 57 | 2.0 | 3.0 | 0.00 | 0.00 | 0.00 | 60 | 1019.4 |
| 20260504181406 | 60 | 50 | 1.0 | 3.0 | 0.00 | 0.00 | 0.00 | 61 | 1019.4 |
| 20260504175904 | 60 | 52 | 2.0 | 2.0 | 0.00 | 0.00 | 0.00 | 62 | 1019.3 |
| 20260504175406 | 60 | 50 | 1.0 | 2.0 | 0.00 | 0.00 | 0.00 | 62 | 1019.2 |
| 20260504174904 | 60 | 49 | 1.0 | 2.0 | 0.00 | 0.00 | 0.00 | 62 | 1019.3 |
| 20260504174403 | 61 | 55 | 1.0 | 2.0 | 0.00 | 0.00 | 0.00 | 61 | 1019.2 |
| 20260504173904 | 61 | 70 | 1.0 | 3.0 | 0.00 | 0.00 | 0.00 | 60 | 1019.2 |
| 20260504173405 | 61 | 46 | 1.0 | 3.0 | 0.00 | 0.00 | 0.00 | 59 | 1019.2 |
| 20260504172905 | 62 | 49 | 1.0 | 3.0 | 0.00 | 0.00 | 0.00 | 59 | 1019.2 |
| 20260504171404 | 64 | 41 | 2.0 | 3.0 | 0.00 | 0.00 | 0.00 | 56 | 1019.2 |
| 20260504170904 | 65 | 82 | 0.0 | 1.0 | 0.00 | 0.00 | 0.00 | 55 | 1019.2 |
| 20260504150904 | 71 | 229 | 3.0 | 6.0 | 0.00 | 0.00 | 0.00 | 43 | 1019.5 |
| 20260504140904 | 71 | 216 | 2.0 | 6.0 | 0.00 | 0.00 | 0.00 | 38 | 1019.8 |
| 20260504140404 | 70 | 219 | 3.0 | 7.0 | 0.00 | 0.00 | 0.00 | 39 | 1019.8 |
| 20260504130405 | 70 | 217 | 2.0 | 6.0 | 0.00 | 0.00 | 0.00 | 44 | 1020.3 |
| 20260504110403 | 68 | 233 | 1.0 | 10.0 | 0.00 | 0.00 | 0.00 | 44 | 1021.5 |
| 20260504100404 | 66 | 227 | 3.0 | 7.0 | 0.00 | 0.00 | 0.00 | 43 | 1021.8 |
| 20260504081905 | 64 | 232 | 2.0 | 5.0 | 0.00 | 0.00 | 0.00 | 46 | 1022.9 |
| 20260504081404 | 64 | 223 | 1.0 | 5.0 | 0.00 | 0.00 | 0.00 | 46 | 1022.9 |
| 20260504080904 | 63 | 221 | 1.0 | 3.0 | 0.00 | 0.00 | 0.00 | 46 | 1022.8 |
| 20260504080404 | 63 | 259 | 1.0 | 3.0 | 0.00 | 0.00 | 0.00 | 46 | 1022.8 |